星链-6099 (STARLINK-6099 )

导读 | 星芒AI

STARLINK-6099 是 SpaceX 星链(Starlink)卫星互联网项目中的一颗低轨通信卫星。它属于星链计划的第 18 批次(v1.5 版本)部署任务,于 2022 年 9 月发射。该卫星旨在为全球用户提供高速、低延迟的互联网服务,主要面向偏远和网络覆盖不足的地区。STARLINK-6099 采用先进的推进和通信技术,支持全球范围内的宽带连接,是 SpaceX 构建全球卫星互联网基础设施的重要组成部分。

基本信息
目录编号:
57108
目录名称:
STARLINK-6099
国际标识:
2023-090H
轨道中心:
EARTH
卫星名称:
星链-6099
卫星全名:
星链-6099 (STARLINK-6099 )
卫星状态:
在轨 (已飞行865 天)
发射日期:
2023-06-23 UTC
国别 :
美国 (US)
星等 :
--
轨道信息
数据来源 国际轨道数据
星历时间: 2025-11-04T03:14:47+0800
5小时前
查看轨道信息
半长轴: 6937.239km
偏心率: 0.0000991
轨道倾角: 43.004°
近地点辐角 262.777°
升交点赤经 238.940°
平近点角 97.296°
近地点: 558.416km
远地点: 559.792km
周期: 95.838分钟
每日圈数: 15.025289
详细信息
固有亮度:
5
最大亮度:
2.4
卫星平台:
Starlink v1.5
覆盖范围:
全球
运营商:
太空探索技术公司
运营商所在国:
美国
制造商(研发单位):
太空探索技术公司
制造商所在国:
美国
使用方式:
暂无
卫星简介
星链(Starlink)计划是由太空探索技术公司(SpaceX)提出的一个巨型低轨卫星互联网星座项目,计划在2019年至2024年间在太空搭建由约1.2万颗卫星组成的“星链”网络,其中1584颗将部署在地球上空550千米处的近地轨道,并从2020年开始工作。该卫星仍在工作。
2D轨道图
3D轨道图
轨道高度分析图
轨道倾角分析图
轨道综合分析图
查看轨道综合分析图